RH
23 26 26 20 21 19 21 23 23 19 16 19 21 19 16 13 12 12 11 10 10 10 9 10 10 11 12 14 16 16 15 16 17 18 18 18 18 18 20 21 21 21 21 21
29 32 25 23 24 26 27 27 26 23 22 24 22 20 18 17 14 11 11 10 10 10 10 10 11 12 14 15 18 19 18 18 17 17 18 18 18 20 22 23 22 22 22 22
27 26 28 28 29 30 29 31 28 28 26 25 26 23 20 16 15 13 13 12 12 10 10 11 12 13 15 15 15 15 17 17 18 19 19 20 22 23 23 22 21 21 21 21
29 25 26 28 31 28 29 29 30 31 30 29 25 23 19 18 17 17 16 14 13 11 12 11 11 12 14 15 16 16 17 19 19 20 21 22 22 23 22 22 22 22 22 23
30 31 33 34 32 36 31 33 33 33 35 36 35 37 20 20 20 17 15 15 15 15 15 14 15 15 16 17 18 17 18 20 21 21 22 23 23 23 23 23 24 24 24 29
33 31 31 33 34 34 35 34 40 45 43 38 35 36 18 24 22 19 19 19 19 20 20 18 18 18 18 19 19 19 20 21 21 22 23 24 25 24 26 26 26 26 27 30
36 34 33 35 36 36 37 40 50 51 59 45 31 39 23 26 26 26 24 21 20 21 22 21 20 19 19 19 20 20 22 22 24 26 28 27 29 30 30 29 29 29 29 30
43 34 39 40 43 42 44 44 52 57 45 34 44 35 24 24 24 25 26 24 23 24 22 22 22 21 22 21 20 21 22 23 25 26 26 28 28 30 31 32 31 31 33 34
58 46 47 48 46 46 44 50 43 57 61 59 32 28 25 27 28 26 28 28 27 25 27 26 24 24 24 24 25 22 24 25 26 27 28 28 30 30 31 32 34 35 36 37
59 61 43 48 50 47 52 51 56 60 65 64 45 35 29 30 29 29 30 30 28 28 30 30 27 27 28 30 26 25 26 27 29 30 31 32 33 34 34 33 34 37 39 39
69 75 54 53 51 52 57 58 57 59 67 60 60 45 29 31 30 32 32 34 34 37 35 33 32 33 33 32 30 28 29 30 31 32 34 35 35 34 36 36 38 39 41 42
77 85 96 70 59 57 57 56 54 60 62 69 71 64 32 34 35 34 35 38 39 38 36 35 36 38 39 37 34 32 33 34 36 38 40 40 38 38 38 40 42 43 43 44
76 90 90 90 70 59 61 54 57 57 61 62 74 62 33 33 31 31 37 36 38 41 43 44 44 45 45 42 40 38 37 37 41 41 40 41 41 43 45 44 43 43 43 43
73 84 77 68 48 46 53 53 61 63 66 64 64 55 39 32 31 29 35 33 38 43 45 51 50 51 50 52 51 48 44 41 43 43 43 42 43 45 45 43 43 45 48 48
75 85 87 72 68 71 65 59 57 66 62 68 53 45 47 38 33 33 30 31 37 44 50 58 62 55 50 51 51 49 48 49 48 45 44 42 46 46 48 46 45 48 48 47
82 95 95 97 92 82 88 75 66 63 51 54 56 62 48 45 46 40 41 38 42 63 54 58 61 62 51 51 52 51 51 50 48 45 45 48 47 46 46 44 45 49 51 51
70 86 86 94 96 96 95 73 75 78 78 79 87 73 90 84 81 65 56 63 68 65 60 60 64 64 60 57 58 55 60 53 47 46 46 46 48 49 49 48 48 50 52 57
47 50 66 77 82 95 75 79 90 95 89 87 95 97 91 93 82 77 76 78 71 70 67 65 64 62 59 56 66 65 61 56 51 46 46 49 49 51 51 52 56 57 58 61
24 36 49 59 57 65 62 84 96 98 89 97 98 94 94 87 73 86 77 80 77 71 74 73 66 64 60 66 67 66 63 59 53 49 50 53 55 58 59 61 63 63 63 64
38 47 55 59 84 81 83 84 84 92 98 97 92 94 93 91 92 69 72 75 81 79 84 79 77 77 66 68 69 69 64 58 53 52 56 62 69 69 68 69 67 67 67 68
47 44 49 46 54 57 64 56 59 95 90 90 96 90 85 85 84 70 75 77 76 77 83 84 84 79 72 68 67 63 67 64 65 66 67 70 72 73 72 70 68 69 72 72
44 60 69 70 72 68 50 52 51 42 54 77 72 75 78 73 70 76 76 69 70 74 74 75 77 78 78 70 74 70 74 78 75 74 75 76 76 74 73 73 71 71 77 79
47 42 56 71 66 55 46 51 45 51 47 48 51 50 57 63 61 53 47 60 66 67 67 67 72 70 67 64 71 74 87 92 88 82 80 80 78 81 81 80 77 76 77 79
48 36 47 45 30 32 26 31 41 46 49 50 54 54 55 55 51 44 54 54 56 55 56 56 58 58 59 59 68 74 78 85 93 94 90 86 86 93 90 88 82 87 86 84
49 49 49 53 39 33 29 31 34 37 38 40 46 48 51 52 45 52 44 41 41 36 33 40 48 44 47 55 57 64 67 78 84 89 91 89 86 90 94 96 94 95 94 88
46 54 60 50 41 50 42 40 45 45 42 43 43 41 38 38 38 40 38 40 40 36 36 39 39 43 40 48 52 55 58 64 75 80 83 88 88 85 85 86 85 86 89 92